Location: Huntsville
(41.2590°N, 111.7678°W)
Time: 21:48:41
(UTC+00:00)

SR - Pass Details

Date: 17 June 2021
Orbit: 577 x 878 km, 66.7° (Epoch: 28 July)

Event Time Altitude Azimuth Distance (km) Brightness Sun altitude
Rises 11:05:48 0° 309° (NW) 3,214 ? -8.0°
Reaches altitude 10° 11:09:56 10° 278° (W) 2,199 ? -7.4°
Maximum altitude 11:11:34 12° 259° (W) 2,059 ? -7.2°
Drops below altitude 10° 11:13:10 10° 239° (WSW) 2,129 ? -7.0°
Enters shadow 11:14:00 - 230° (SW) 2,243 ? -6.8°
